Torna al catalogo

ISS

NAUKA

AttivoScienzaVLEO
NORAD 49044·PAYLOAD·🇷🇺 Russia

Lanciato Jul 21, 2021 da Baikonur Cosmodrome

Loading…

Prossimi Passaggi (prossime 24 ore)

TLE

AggiornatoSource: Space-Track

Epoca: Sep 14, 2026, 08:04 UTC

1 49044U 21066A   26257.33674862  .00004921  00000-0  97059-4 0  9997
2 49044  51.6309 218.8707 0004933 140.1115 220.0237 15.49109585586509

Traccia ISS in tempo reale con AllMySat

Download on the App Store